Theta_e
303 304 305 305 305 306 306 306 306 306 308 301 297 302 295 293 290 303 305 312 309 300 292 294 293 291 294 297 294 294 291 291 291 292 293 292 294 291 290 289 289 288 289 288 289 291 288 289 287 288 287 289 292 288 292 291 293 294 287 288 287 293 287 284 285 284 282 284 283 283 283 286 287 286 282 285 286 285 283 280 280 282 275 276 273 272 283
303 304 304 305 305 305 305 305 306 306 306 297 297 297 294 295 294 295 302 310 308 296 287 287 289 292 294 294 294 296 293 291 291 291 292 292 290 291 290 289 291 289 288 289 289 292 287 290 289 287 287 286 288 290 291 293 291 292 289 290 293 287 286 287 282 279 280 283 284 285 285 285 282 283 284 286 286 286 281 281 278 278 279 282 280 277 284
303 303 304 304 304 305 305 305 305 305 306 303 298 292 295 295 296 294 296 304 302 292 294 291 290 291 290 291 291 292 293 294 295 294 291 293 291 292 291 294 292 291 291 292 292 293 292 288 291 292 288 289 287 288 291 294 293 294 292 296 297 290 289 287 281 279 277 276 277 280 282 283 282 278 282 286 287 284 284 283 279 280 282 281 280 282 289
303 303 303 304 304 304 304 304 305 305 305 306 300 294 291 289 283 292 292 297 298 296 297 294 293 291 290 289 291 293 291 293 295 296 294 295 295 294 292 293 294 293 292 290 290 290 294 292 288 289 288 289 287 287 290 292 293 295 296 294 295 287 288 289 288 285 283 285 286 285 285 281 282 284 285 285 287 287 288 285 283 282 286 281 284 287 289
302 303 303 303 303 303 304 304 304 305 305 305 298 294 290 291 285 288 283 294 293 291 293 292 293 289 294 287 291 289 290 293 292 297 292 296 295 294 294 292 290 290 292 290 290 292 291 293 290 288 289 289 288 288 289 292 294 295 294 295 292 286 287 289 289 289 289 290 290 286 288 285 286 286 284 286 286 286 286 285 284 289 284 282 287 288 287
302 302 303 303 303 303 304 304 304 304 304 304 299 290 293 284 288 291 289 285 283 286 287 290 290 293 294 289 292 288 289 290 288 293 296 297 296 291 291 292 293 293 291 291 288 290 290 290 288 292 289 291 290 291 290 291 294 293 292 294 293 287 287 290 289 288 290 291 291 288 286 287 287 287 287 285 286 286 286 287 289 289 285 284 289 289 286
302 302 302 303 303 303 303 304 304 304 303 303 298 288 289 289 289 289 290 285 288 289 289 288 288 288 290 288 290 289 289 289 291 290 290 293 292 294 288 290 292 292 293 291 288 290 286 286 291 289 289 289 289 287 290 292 293 292 291 291 289 290 288 289 290 288 289 290 290 289 286 287 284 286 287 287 287 286 287 288 290 289 288 289 290 290 289
302 302 302 302 302 303 303 303 303 303 303 301 294 292 288 285 286 283 289 289 286 285 287 288 290 286 290 286 287 287 287 288 290 291 291 287 290 296 291 292 293 293 292 292 290 291 292 292 288 291 292 289 288 288 291 287 288 290 289 291 288 289 286 291 287 286 287 289 290 290 286 286 285 283 284 287 287 288 288 289 289 289 288 290 290 289 289
301 301 301 302 302 302 303 303 304 303 303 294 293 292 292 291 289 289 284 283 283 286 285 285 285 284 287 286 288 289 289 288 292 292 295 292 290 293 291 293 293 294 293 292 292 294 294 294 294 295 294 290 293 291 288 292 287 287 288 289 288 289 287 290 288 285 285 289 288 288 286 283 284 284 284 285 285 284 287 286 289 287 287 288 288 287 288
301 301 301 301 301 302 302 302 303 302 303 295 294 289 294 293 292 293 288 282 285 282 284 284 284 282 286 286 286 286 288 290 292 288 294 295 295 294 294 294 293 292 292 291 293 296 296 296 297 297 295 298 296 295 294 293 291 288 288 289 286 287 287 287 287 284 285 288 289 288 283 284 283 284 286 287 288 288 288 289 290 290 291 287 285 287 293
301 300 301 301 301 301 302 302 302 303 300 293 292 291 293 291 290 289 289 281 283 283 284 282 284 285 287 286 285 287 286 287 289 286 287 293 292 294 294 293 291 290 291 295 299 299 299 299 299 296 296 296 296 295 294 293 293 292 289 288 287 287 288 286 288 283 285 287 287 285 283 278 280 292 295 293 289 288 286 287 289 290 291 290 293 293 296
301 300 301 301 301 301 301 302 302 302 300 297 297 293 292 293 289 289 285 280 281 284 283 281 284 285 285 286 287 286 285 285 286 289 287 290 292 294 294 293 292 286 295 297 295 295 295 296 297 297 295 295 296 296 295 294 293 293 294 291 287 288 288 287 287 284 284 287 286 282 277 280 291 295 294 296 295 293 290 291 292 292 292 292 291 292 293
301 301 300 300 300 301 301 301 303 302 301 298 296 292 294 292 290 286 285 283 280 282 280 282 285 285 284 284 284 284 286 286 287 288 288 290 290 291 292 292 291 293 299 297 297 296 291 289 290 291 291 292 293 294 293 294 294 294 293 295 291 288 287 287 285 286 286 284 284 277 279 287 287 289 292 290 293 294 292 289 292 293 293 292 291 293 295
301 300 300 300 300 300 301 301 301 302 302 299 294 295 295 294 289 287 284 281 281 284 283 282 282 283 284 283 283 284 285 285 286 288 287 289 289 290 291 294 296 299 298 298 295 293 289 288 285 286 286 288 288 287 289 292 293 293 293 293 295 292 289 288 284 288 281 284 284 283 288 287 288 288 287 288 289 288 289 286 289 294 294 293 292 293 294
300 301 300 300 300 300 300 300 301 301 300 301 296 294 294 293 293 290 288 286 280 281 284 278 281 282 283 282 284 283 282 283 284 283 286 289 288 290 291 294 294 296 297 295 288 289 288 286 283 283 284 284 279 282 289 286 289 292 293 294 294 294 288 288 285 284 287 283 282 283 282 279 286 292 294 291 293 293 293 291 288 294 294 295 294 293 294
300 300 301 300 299 300 300 300 300 300 301 301 296 294 294 294 293 292 288 284 284 277 281 285 285 282 281 282 285 284 283 284 283 283 282 282 285 288 289 290 290 296 295 293 288 287 285 284 282 283 280 283 286 284 280 287 287 287 291 292 292 292 293 289 286 284 285 283 281 281 280 283 290 291 292 289 291 292 289 288 286 294 295 294 294 293 294
300 300 300 299 301 300 300 300 300 300 301 301 294 294 293 296 294 291 289 284 283 279 286 284 285 284 281 279 282 282 284 282 283 278 277 281 284 287 287 287 287 292 294 291 288 286 284 282 284 283 284 285 284 282 286 285 282 282 284 288 288 288 288 288 284 283 285 284 282 280 285 285 289 288 286 286 288 292 290 280 283 295 295 292 292 292 293
300 300 300 299 299 300 300 300 300 299 300 302 296 292 292 296 295 294 290 286 282 282 286 285 282 281 281 281 279 282 283 281 281 280 281 280 279 280 280 285 285 287 292 288 287 285 284 283 281 281 281 285 284 285 279 283 282 280 282 283 284 285 286 286 282 284 285 285 283 286 286 287 288 284 284 285 290 292 285 281 289 291 290 291 293 294 295
300 299 300 300 300 300 299 299 299 299 299 299 296 291 291 295 295 295 290 285 284 280 286 287 288 285 285 287 280 283 282 284 283 282 279 281 281 282 282 282 286 285 289 286 287 284 283 282 286 285 282 284 285 280 286 282 279 280 281 282 283 285 286 286 286 284 283 284 283 283 287 287 286 283 287 289 290 280 284 292 288 288 286 290 293 293 295
299 299 299 299 299 299 299 299 299 299 299 299 297 290 292 295 294 294 290 284 285 283 286 283 286 285 286 284 282 283 281 282 283 282 281 278 284 285 284 281 286 286 284 287 283 285 284 281 283 285 283 284 285 286 284 283 287 280 281 285 284 284 284 281 284 285 286 285 282 282 278 288 288 289 288 288 288 289 289 288 286 286 286 288 289 292 293
299 299 299 299 299 298 299 299 298 299 299 299 298 291 289 294 294 294 295 291 285 282 284 287 286 287 286 285 287 287 285 283 284 283 285 284 285 284 276 277 283 284 282 286 281 284 284 282 285 284 286 286 285 288 282 284 285 285 286 284 284 288 284 284 286 289 282 282 280 281 288 287 290 293 288 289 292 289 287 291 293 285 282 287 289 289 291
299 299 299 299 298 299 299 298 298 298 299 299 298 292 289 293 294 294 293 294 287 284 285 287 288 287 289 290 290 290 289 288 289 289 286 284 285 285 284 286 284 284 285 284 281 280 284 284 287 281 281 283 286 284 285 283 281 284 283 285 283 289 286 287 285 289 287 285 288 287 286 289 291 294 294 295 297 293 289 292 293 290 286 283 285 288 288
299 299 299 299 299 299 298 298 298 298 298 299 297 290 289 292 291 294 292 287 288 289 290 286 287 287 289 289 290 290 290 290 291 291 291 287 284 285 285 284 284 285 284 285 283 284 284 284 283 285 284 285 283 283 285 285 283 285 284 287 287 290 291 284 285 284 287 288 287 287 284 284 288 291 292 294 296 295 290 289 289 286 287 285 288 287 288
299 298 298 298 298 298 298 298 297 297 298 299 297 290 290 292 292 290 287 288 286 283 286 287 283 281 284 285 289 289 289 289 291 292 294 293 284 284 286 286 288 287 283 283 285 285 284 283 282 284 279 285 286 282 282 281 284 287 286 285 285 287 287 286 285 285 288 284 289 290 290 289 288 292 293 291 285 287 288 288 288 289 286 285 286 287 287
298 298 298 299 298 297 298 297 298 298 298 298 297 294 292 289 290 291 287 281 282 281 276 281 284 288 290 290 289 287 291 293 293 291 291 293 291 286 284 288 290 287 286 284 284 284 285 282 283 282 279 285 286 281 286 283 282 286 283 285 284 284 285 285 286 284 287 287 290 290 292 292 288 290 290 291 291 286 282 286 287 286 284 285 285 283 282
297 298 298 298 298 298 298 298 297 297 297 299 297 290 290 289 292 293 290 288 283 281 277 275 280 283 284 288 286 289 290 291 291 290 291 292 293 293 291 289 286 287 286 285 285 285 284 284 284 284 281 282 288 284 284 285 286 286 284 284 287 285 286 281 285 287 288 289 288 289 285 286 287 287 286 289 289 287 286 284 283 282 283 283 282 283 284
297 296 297 298 297 297 297 297 297 297 298 298 295 290 291 291 293 291 287 286 282 276 278 276 280 279 280 284 284 284 287 289 290 290 289 290 291 292 292 290 289 287 286 286 286 286 286 283 284 281 285 284 286 281 285 283 282 283 284 286 286 285 284 286 285 284 285 286 289 291 286 287 290 290 290 290 289 287 286 283 282 283 283 284 283 283 281
298 297 297 297 297 298 297 297 297 297 297 297 295 290 291 289 290 293 292 290 284 277 276 277 275 277 281 279 283 286 286 288 289 288 288 289 289 290 289 289 289 287 286 285 282 283 282 281 280 286 286 284 285 282 286 286 283 282 283 285 287 285 286 286 284 285 285 288 290 289 290 291 293 292 290 290 289 287 287 286 285 284 284 285 285 282 279
296 296 296 297 297 297 297 296 296 297 297 296 286 286 286 289 290 293 293 292 289 282 274 274 276 274 274 279 282 282 284 287 287 287 287 287 287 288 288 289 288 288 287 286 285 285 283 283 286 284 282 286 284 281 285 278 280 280 284 287 287 286 290 290 289 289 290 291 292 292 288 288 292 292 287 288 288 287 287 288 286 285 284 284 285 285 285
296 296 297 297 296 297 297 296 296 297 297 286 286 283 282 284 290 291 294 290 288 285 280 278 275 278 277 277 277 280 283 285 285 285 285 285 286 287 288 288 288 289 287 285 285 281 284 284 283 283 284 288 284 283 282 281 281 283 287 287 287 288 288 290 292 290 289 292 289 288 288 290 291 285 283 285 286 287 288 288 288 286 284 284 284 285 284
296 296 296 296 296 296 296 296 296 296 293 287 284 278 278 276 283 292 294 292 291 287 281 282 278 281 272 276 278 280 282 284 284 285 286 286 287 287 288 289 288 288 283 284 284 284 285 281 284 283 283 286 287 281 281 281 279 281 284 285 287 287 287 288 289 289 289 289 285 281 280 283 283 282 283 284 284 284 286 287 286 285 285 284 284 284 284
296 295 296 296 296 296 296 296 297 295 287 286 283 280 280 280 283 290 294 293 291 285 280 276 275 272 271 277 278 283 283 283 284 285 285 287 284 287 286 287 285 289 287 284 285 285 282 285 284 282 281 286 289 279 282 281 279 281 286 286 285 282 283 285 286 286 282 281 281 283 285 286 284 285 289 286 284 284 285 286 285 283 283 283 282 280 280
295 296 296 295 295 295 296 296 296 292 287 290 296 294 293 293 294 294 294 290 287 283 283 276 272 273 271 270 277 280 282 283 283 285 282 287 283 286 282 287 286 286 290 285 281 280 285 285 285 283 284 287 282 280 282 280 282 286 287 287 288 285 284 285 283 280 280 280 282 284 286 288 286 284 285 282 281 282 282 283 280 280 281 280 280 279 278
296 296 295 295 295 295 295 296 295 293 292 288 282 283 285 295 294 295 291 288 283 283 279 276 273 271 271 271 270 275 283 280 280 283 278 285 284 284 282 285 285 282 285 282 284 283 280 280 280 283 284 282 285 281 277 281 285 285 286 287 287 284 283 282 281 282 282 281 280 281 280 278 277 277 278 279 278 278 278 277 278 280 280 280 280 280 279
295 295 295 295 296 296 295 294 287 285 282 284 284 285 286 295 294 295 291 285 278 276 277 275 274 267 268 266 269 273 282 277 277 282 278 279 285 282 283 278 281 279 281 287 281 281 281 280 283 279 277 284 281 277 280 283 284 285 285 285 285 282 280 281 283 284 282 278 277 278 278 277 278 277 277 276 276 275 276 276 279 280 280 280 280 278 278
295 295 294 294 294 293 288 287 285 284 282 282 282 290 294 296 294 287 282 279 277 273 275 274 274 269 267 263 263 267 282 275 279 277 279 280 280 284 281 280 275 279 282 280 278 283 279 283 277 275 283 278 276 281 282 285 284 284 283 281 280 281 283 284 286 281 277 277 277 278 278 277 277 277 277 276 275 274 275 275 277 279 281 280 279 278 278
293 294 294 293 287 283 279 281 286 284 283 287 290 293 291 290 287 288 286 283 279 278 273 272 271 270 270 268 265 269 278 270 279 278 281 278 277 281 279 277 275 280 274 275 276 277 281 284 281 277 278 275 279 278 271 269 268 268 268 267 267 268 270 272 275 278 277 278 278 277 277 276 276 277 278 278 277 276 276 276 277 277 278 278 278 278 278
294 293 286 282 281 278 278 281 281 285 294 293 292 285 281 283 279 280 280 276 279 281 271 270 268 267 265 267 267 273 274 268 276 276 278 281 277 275 279 278 276 278 269 274 276 282 277 276 276 277 278 282 273 263 264 265 265 264 263 263 263 264 264 266 268 275 281 280 281 281 277 276 276 278 279 279 278 277 278 279 279 280 280 279 278 279 278
289 283 281 278 277 276 277 277 289 294 287 284 280 276 274 275 274 271 273 276 277 273 277 273 269 267 267 265 267 274 274 268 267 271 269 277 276 272 277 272 278 278 272 272 273 282 273 274 274 274 273 276 272 263 260 262 262 261 260 261 261 262 263 263 265 266 266 270 273 274 278 284 286 285 281 281 279 279 278 279 279 278 279 279 278 278 278
280 279 279 277 274 275 283 289 294 288 283 275 273 274 269 270 272 268 274 270 271 274 277 271 273 267 270 271 270 268 274 270 267 264 266 268 278 270 274 271 275 274 268 270 271 276 272 269 273 273 274 273 264 260 258 258 258 258 258 258 259 260 261 261 262 265 265 265 267 269 268 268 271 280 281 280 279 278 277 278 280 279 278 278 278 278 278
279 279 278 277 277 279 282 282 279 276 275 273 272 271 269 268 265 266 270 266 265 266 270 273 272 269 272 270 268 269 275 275 267 264 266 266 275 274 267 268 278 269 268 269 274 271 271 268 269 270 273 260 257 257 256 256 256 256 256 257 258 258 259 259 260 263 263 263 263 263 263 263 264 268 275 278 279 279 279 279 279 278 277 277 277 277 275
281 280 280 282 281 281 281 277 276 275 274 274 271 267 268 268 267 262 264 265 266 265 265 270 271 270 267 273 271 272 268 269 270 273 270 266 275 271 267 267 267 266 267 272 269 263 268 268 269 270 260 256 257 255 255 253 254 254 255 255 256 257 257 257 258 260 262 262 262 261 262 262 263 263 261 264 274 276 275 275 275 274 275 273 273 273 273
289 285 283 277 277 276 275 273 272 272 269 268 268 265 266 265 266 265 263 265 260 258 261 263 269 279 277 273 269 268 270 277 274 271 266 266 273 272 268 265 264 263 270 271 269 269 267 266 268 264 252 254 254 254 253 253 253 254 254 256 255 256 256 256 257 258 260 261 260 260 260 261 261 261 261 261 265 267 266 267 269 270 269 270 271 271 271
284 279 276 274 275 273 274 267 274 270 267 266 265 262 263 262 263 258 256 260 261 265 265 270 271 272 269 271 271 272 270 274 278 265 266 270 270 269 270 265 264 267 268 266 268 265 267 265 258 254 253 252 253 253 252 252 253 253 253 254 255 255 255 256 256 257 258 259 259 259 259 259 259 260 259 259 258 261 263 264 264 265 265 267 268 268 268
276 272 272 271 270 274 271 265 272 267 264 265 267 260 262 262 263 262 265 260 262 264 264 264 265 267 267 265 265 265 275 269 277 270 268 271 266 269 267 264 266 262 263 266 266 264 264 263 252 249 251 250 251 252 252 252 252 252 252 252 253 254 254 254 254 255 256 257 257 257 257 257 257 258 258 257 257 257 259 259 261 264 265 265 265 265 264
272 272 270 269 267 270 268 263 262 264 265 263 262 257 261 260 260 260 255 255 258 260 262 262 261 265 265 264 271 268 270 271 271 270 270 266 263 263 267 263 262 263 263 262 261 262 266 258 249 250 251 251 251 251 251 252 252 252 251 251 252 253 253 254 254 255 255 256 256 257 256 256 256 256 256 257 256 256 257 257 258 260 264 265 264 264 264
273 271 266 268 267 267 265 262 261 258 257 256 257 255 256 256 256 256 254 253 252 256 257 259 262 266 267 264 264 264 261 262 265 268 266 263 266 267 268 264 263 263 261 260 262 265 258 249 250 251 251 251 250 250 251 251 252 251 251 252 252 252 253 253 254 254 255 255 256 256 256 256 256 256 256 256 256 256 256 257 258 260 261 260 261 261 261
270 271 267 265 265 265 262 256 256 256 256 256 254 255 256 259 257 255 254 253 254 255 256 260 264 265 266 266 265 265 261 261 266 265 266 267 266 261 262 264 263 264 262 263 261 247 244 249 249 250 250 250 250 250 250 250 251 251 251 251 252 252 253 253 253 254 254 254 254 255 255 255 255 255 255 255 255 255 255 256 257 258 259 259 258 257 256
262 260 262 259 259 259 258 258 258 255 255 255 256 255 255 255 252 251 252 252 252 252 253 257 263 265 264 264 263 265 266 265 262 264 263 261 262 262 262 259 260 262 255 246 248 247 248 249 249 249 249 250 250 250 250 251 251 251 251 251 252 252 253 253 254 254 254 254 254 254 254 254 254 254 254 254 254 254 254 255 256 257 257 257 257 257 257
259 255 251 254 259 258 259 260 259 254 254 254 254 252 252 253 252 250 252 251 252 252 257 262 264 267 265 263 258 257 258 259 265 262 257 260 259 258 260 257 260 260 254 247 248 249 250 250 250 249 249 249 250 251 250 251 251 251 251 252 253 253 254 254 254 255 254 254 254 254 254 254 254 254 253 253 254 254 253 253 253 253 254 255 256 256 256
257 252 248 247 250 251 253 259 258 257 254 251 250 250 250 251 252 251 253 251 251 254 259 262 263 263 262 261 260 261 263 261 260 259 260 258 252 253 258 261 254 246 248 250 251 251 252 252 251 250 250 250 250 251 251 251 251 251 252 253 253 254 254 255 254 255 255 255 255 255 254 254 255 255 255 256 255 254 253 253 252 253 253 253 253 254 254
255 252 249 250 250 250 250 250 249 250 250 251 249 250 250 249 251 251 253 252 251 258 262 260 260 261 263 263 261 259 260 258 258 257 256 251 246 252 252 248 246 248 249 249 250 251 251 252 252 251 251 251 251 251 251 251 251 251 252 253 254 254 254 254 254 255 255 255 255 254 254 254 255 255 255 254 254 253 251 251 252 253 253 253 253 253 253
Wind_Speed
14 13 12 12 12 11 10 10 9 7 4 2 1 1 3 5 4 0 1 9 16 9 9 6 8 8 9 5 1 3 1 4 4 7 5 7 4 1 2 5 5 4 4 3 5 10 5 10 9 6 8 10 12 3 9 6 10 6 0 4 2 5 3 3 8 1 2 3 2 1 1 0 3 5 1 4 9 7 6 3 6 8 3 2 1 2 17
14 13 12 12 12 12 11 11 11 9 7 3 1 2 3 2 2 4 1 9 15 11 12 13 12 10 7 4 3 4 4 5 3 5 7 8 3 6 3 2 4 3 2 3 6 8 5 6 11 7 4 5 4 11 9 14 8 9 8 9 6 4 4 7 5 2 2 2 2 2 1 1 2 2 3 5 3 5 2 4 0 1 7 10 9 13 17
15 14 13 13 12 12 12 11 11 10 10 6 3 2 1 1 1 2 2 2 6 10 9 12 11 12 13 8 11 5 3 5 9 9 6 3 2 3 6 8 2 3 2 3 3 8 13 4 10 11 5 7 1 3 12 14 8 9 2 2 8 6 7 9 8 11 11 10 10 14 11 10 4 3 5 7 9 8 6 8 5 8 7 11 6 10 20
16 15 14 14 13 12 12 11 11 11 10 8 4 3 1 3 4 4 3 2 4 3 4 4 7 11 12 12 10 9 10 2 6 10 5 9 5 6 1 0 5 4 3 4 5 6 8 11 1 8 4 4 1 4 10 13 9 12 6 5 7 2 3 11 14 15 16 16 9 2 10 4 7 10 11 10 10 10 9 2 4 14 15 8 11 18 25
17 16 15 14 14 13 13 13 13 12 9 9 5 2 2 2 4 5 3 2 6 7 3 4 3 4 7 8 4 13 12 8 1 10 5 7 8 3 5 2 5 3 6 8 9 9 7 9 6 3 4 1 1 2 6 7 12 13 5 4 5 2 4 10 14 18 18 17 18 8 9 11 14 16 11 13 12 13 15 13 18 17 7 15 17 23 18
19 18 17 15 14 14 14 13 13 12 10 10 4 3 5 7 4 4 3 3 4 6 10 8 9 6 4 4 5 8 11 12 9 4 9 7 12 8 0 7 11 10 15 10 10 8 10 6 7 6 5 2 0 0 1 5 9 6 2 5 7 6 9 10 11 15 17 18 18 8 8 11 14 17 16 16 17 14 18 21 25 18 15 22 20 10 15
19 18 18 16 16 16 15 15 15 14 13 11 6 4 3 1 2 1 1 3 2 5 2 2 6 10 10 3 3 6 13 14 12 6 3 6 4 14 10 13 17 16 10 10 9 10 7 8 8 7 6 10 4 3 1 6 2 5 4 2 1 4 11 11 13 16 16 17 20 12 15 10 5 11 17 18 18 20 24 26 27 24 18 15 18 19 18
21 19 18 17 17 16 16 15 15 14 15 9 8 7 5 6 5 3 1 1 1 1 1 1 2 4 5 7 9 7 4 9 5 4 8 5 7 11 18 16 14 15 13 12 12 12 14 11 10 7 12 7 5 5 7 2 1 5 7 4 1 7 8 9 5 7 13 19 19 17 12 13 11 4 4 11 19 24 28 26 22 17 16 18 22 22 23
21 20 19 18 17 17 17 17 16 15 13 7 7 4 6 1 2 1 4 2 2 1 3 2 3 3 2 6 5 5 10 13 7 5 3 11 9 11 19 18 15 10 14 15 18 15 15 14 17 10 10 13 8 9 3 5 3 3 4 3 3 9 6 6 4 9 12 14 18 20 7 4 8 8 8 15 21 23 20 16 13 14 20 23 19 17 22
23 22 21 19 19 18 18 17 18 17 16 5 4 7 3 2 0 1 2 4 3 3 1 2 2 8 6 5 4 4 2 2 1 4 5 9 10 7 13 16 13 12 15 19 20 19 18 16 15 16 9 8 2 5 5 8 7 5 7 1 2 4 4 7 7 12 13 16 15 15 3 3 6 13 21 27 25 15 7 13 17 22 21 14 15 22 22
24 23 22 20 19 19 18 19 19 19 10 8 7 3 6 7 6 2 1 2 3 4 5 4 8 5 5 4 4 5 6 5 3 6 2 2 1 3 4 7 11 11 15 16 14 12 13 12 11 1 2 3 4 3 3 4 3 6 7 3 3 4 8 7 4 9 9 15 14 5 5 15 17 18 27 21 19 14 13 17 22 21 12 15 18 19 19
24 24 23 22 21 20 19 19 19 21 16 8 5 4 3 6 3 3 5 11 9 6 7 8 8 4 6 1 3 3 4 6 7 5 11 8 6 0 1 3 3 5 3 5 5 3 3 2 2 0 3 6 9 8 7 8 9 6 6 5 5 9 9 9 5 5 9 10 5 9 18 17 12 13 5 13 16 18 25 27 24 18 15 15 17 19 21
24 24 24 23 22 21 21 19 20 19 18 8 7 7 4 3 6 4 3 4 7 6 7 10 9 9 4 0 2 4 4 4 4 4 4 5 6 4 4 4 5 7 1 2 2 3 5 9 10 10 10 8 10 12 14 14 15 12 9 9 7 8 10 5 5 5 2 3 8 11 11 3 4 4 8 4 9 17 16 17 20 23 22 21 22 25 26
25 25 25 24 23 22 21 21 20 20 21 13 8 8 5 4 5 5 5 3 8 6 5 6 5 4 10 7 5 4 4 5 5 3 5 3 8 8 4 3 4 0 3 2 2 4 5 3 8 5 7 5 6 10 14 18 20 18 17 14 13 13 8 7 8 8 11 8 13 17 5 9 6 6 6 10 10 8 14 16 19 21 17 17 21 26 27
25 25 24 24 25 24 23 22 20 20 21 18 8 5 6 6 6 4 2 3 6 3 9 10 8 10 7 4 3 5 3 2 2 4 4 4 5 4 4 5 2 2 3 1 2 3 5 1 5 7 6 9 10 9 5 8 5 21 22 19 16 14 15 8 12 7 11 12 12 8 9 12 15 20 13 5 9 9 9 11 14 11 14 21 22 25 26
25 26 24 24 24 23 24 23 22 21 20 18 8 7 7 8 5 3 3 5 6 10 8 11 7 3 6 7 7 8 6 3 3 1 2 2 5 6 6 2 2 3 2 2 2 3 2 7 9 10 10 9 7 5 5 3 4 3 17 21 17 17 17 13 14 7 8 12 11 11 10 11 8 16 11 6 8 10 6 6 14 14 20 17 19 21 17
26 26 25 25 23 24 24 23 23 23 21 20 9 8 7 9 7 7 5 2 4 7 3 5 8 7 3 3 2 4 3 7 3 4 3 4 5 7 4 1 1 3 6 5 4 4 4 5 2 4 4 2 7 6 3 5 3 1 4 8 19 18 13 12 14 13 10 10 11 12 6 9 9 4 2 5 6 12 11 9 9 20 12 7 10 11 16
27 27 24 25 25 24 23 23 23 23 21 21 10 7 5 8 8 8 4 5 6 6 7 5 4 6 10 7 6 2 3 2 2 1 2 3 3 2 3 1 2 4 6 9 4 8 10 8 10 7 9 3 1 2 9 4 7 6 8 12 11 13 12 13 20 16 16 16 13 6 7 3 6 4 2 4 7 11 10 15 14 2 5 9 13 18 20
28 26 25 26 24 24 25 25 24 23 22 22 9 3 5 9 10 9 4 3 6 8 4 6 6 5 3 1 2 2 2 4 5 4 1 3 4 4 3 5 3 4 5 7 5 8 8 9 5 6 8 5 2 7 1 4 4 0 5 6 3 9 10 8 12 16 15 13 15 12 7 5 5 0 9 8 6 5 14 7 1 4 3 10 16 16 17
28 26 27 26 26 26 24 23 23 22 22 22 13 8 3 8 9 13 10 7 3 6 3 3 5 12 4 6 5 5 1 0 2 2 3 5 2 6 9 6 1 3 3 3 11 5 9 11 8 2 7 8 7 2 6 5 1 7 3 7 9 11 9 9 11 7 8 8 11 9 12 4 6 11 1 3 8 8 3 0 3 0 4 7 6 10 12
27 27 27 27 27 27 25 25 25 23 22 22 16 6 4 7 9 9 9 8 5 7 9 5 3 7 5 6 9 8 7 9 5 5 5 7 2 4 4 5 0 3 3 5 9 8 4 8 8 6 2 6 4 5 9 7 7 6 7 7 6 8 8 4 8 9 9 12 11 9 6 4 11 15 9 7 12 3 4 5 7 4 4 6 7 9 10
29 28 25 23 26 27 25 24 23 22 22 22 17 6 7 6 9 9 7 6 7 8 2 1 2 5 7 6 8 9 10 9 7 5 3 3 2 8 5 7 4 4 2 2 5 3 2 2 2 3 5 5 3 8 2 9 11 2 3 1 8 7 8 6 10 7 11 8 9 2 2 10 11 8 8 11 15 10 9 10 8 6 7 4 3 8 8
28 27 25 25 25 25 25 25 25 25 23 22 15 7 9 7 6 7 9 7 2 3 1 1 1 3 2 5 5 5 4 1 1 1 4 5 6 4 7 6 10 3 2 4 5 5 4 4 8 2 4 5 5 4 6 7 6 3 7 7 7 4 9 2 3 4 3 3 2 1 1 3 8 9 6 10 13 14 8 9 9 7 7 9 9 8 8
27 28 27 25 24 27 25 23 24 24 23 23 16 7 7 7 8 7 3 4 5 6 6 5 2 9 13 18 10 1 1 4 7 9 6 7 9 7 3 5 2 1 2 4 4 3 3 1 5 3 3 2 1 5 9 10 10 6 7 6 2 6 3 4 7 2 8 9 6 13 12 9 11 15 16 10 5 5 5 6 8 7 7 8 8 6 5
28 28 27 26 25 24 24 24 24 23 22 23 16 8 4 3 5 10 9 7 7 8 8 3 13 17 13 3 3 6 12 12 7 6 5 8 11 11 12 5 5 7 8 4 2 2 2 3 4 3 10 4 2 8 4 7 6 2 5 3 3 5 3 5 5 4 13 9 9 8 10 10 4 8 8 11 14 8 4 6 5 4 1 3 5 3 3
26 27 27 26 24 25 23 20 23 24 23 23 17 9 9 8 7 8 6 3 2 2 7 9 9 1 1 6 7 8 5 8 10 10 11 12 12 14 15 4 3 0 1 2 2 5 5 7 5 7 10 7 4 8 7 4 5 1 2 11 5 3 5 4 3 8 7 7 7 8 4 4 7 8 8 9 6 4 7 7 6 4 4 3 2 5 6
22 25 26 25 25 24 23 21 21 22 22 22 14 9 9 6 10 11 10 8 5 2 4 10 5 1 0 6 3 2 4 8 9 10 10 9 11 10 10 11 10 5 4 4 3 4 4 5 6 9 5 7 3 3 3 5 2 5 8 5 2 3 6 3 4 9 8 10 12 9 9 10 9 10 14 15 11 6 6 4 6 8 9 8 8 7 4
24 24 26 27 25 21 19 21 22 24 23 21 11 6 7 7 9 11 9 9 12 5 2 2 2 5 1 1 5 8 7 7 9 10 10 11 12 11 11 12 10 9 7 7 7 5 5 8 11 6 5 1 6 8 5 8 4 6 7 8 5 10 9 4 7 8 9 6 8 5 5 10 12 8 4 7 7 9 12 13 12 11 10 9 9 7 3
20 24 23 22 23 21 22 22 23 22 21 13 8 6 4 2 5 9 11 10 9 4 1 1 1 2 2 4 2 1 3 7 9 10 10 10 10 10 11 12 12 9 9 7 5 7 9 8 4 6 4 3 0 7 4 8 7 13 9 10 11 7 11 13 13 13 14 14 14 11 4 9 14 13 5 7 7 10 14 15 13 11 10 9 10 12 14
22 22 20 19 21 21 21 21 21 21 15 7 6 5 3 3 5 8 9 7 6 4 4 6 7 5 1 1 2 1 2 5 6 7 7 7 9 10 11 11 10 10 8 7 6 8 6 6 4 3 3 3 3 2 9 7 10 8 5 10 12 11 10 13 13 13 12 11 6 6 7 10 9 6 5 6 5 9 11 14 15 13 11 11 12 11 7
23 22 22 23 23 21 21 21 20 19 15 7 6 4 5 6 5 8 12 8 8 6 2 3 7 1 2 2 2 7 7 5 6 7 8 8 8 9 8 7 8 8 7 6 7 9 5 5 5 6 4 8 5 4 8 10 13 8 6 7 8 8 8 11 11 11 11 11 6 3 4 7 7 5 8 9 7 7 8 9 9 10 11 9 11 9 7
21 24 23 22 21 19 20 20 19 14 11 11 11 7 5 4 4 15 19 13 11 6 5 5 2 1 3 2 2 1 3 4 2 3 2 4 6 7 6 8 6 7 7 7 6 5 9 9 11 5 4 7 8 2 6 11 14 12 6 10 6 5 5 8 9 8 5 4 4 7 9 12 7 10 13 6 7 9 12 12 6 3 5 6 4 4 4
23 22 22 23 22 21 21 20 20 14 8 5 2 6 1 1 10 17 15 11 6 3 2 3 4 1 0 4 1 1 3 3 3 4 4 4 4 3 4 7 6 4 7 8 6 5 5 9 7 11 9 5 5 3 7 13 12 10 14 14 13 8 9 9 5 4 4 3 5 8 12 12 6 6 11 8 4 7 8 8 4 5 6 5 5 3 3
20 21 20 20 19 21 20 19 17 16 10 7 2 6 1 4 16 23 14 8 3 1 3 3 3 3 3 3 2 2 3 5 4 6 3 4 3 4 4 5 8 6 6 8 5 6 3 2 6 8 3 8 6 7 12 10 9 12 14 15 12 7 7 7 6 7 7 6 5 7 9 8 6 5 3 5 5 2 1 3 5 6 7 7 8 8 6
21 20 19 18 18 16 16 14 9 6 6 3 1 1 2 14 16 23 19 8 7 2 1 1 2 3 0 1 1 2 1 1 2 5 6 2 3 6 3 2 3 6 4 5 3 6 6 7 2 4 8 4 7 10 6 8 10 11 11 12 10 7 4 6 9 10 7 3 4 5 4 1 2 3 4 5 4 2 3 4 5 8 8 8 8 5 5
19 19 19 19 16 12 5 8 5 6 2 5 4 6 13 16 16 4 3 3 3 4 3 3 4 4 5 3 2 2 2 0 1 2 3 1 1 1 2 4 4 6 0 4 4 5 6 5 4 7 2 8 8 7 7 8 11 10 6 4 9 8 6 8 11 6 3 1 2 1 1 1 2 2 0 1 2 3 3 3 4 5 7 7 7 6 4
19 17 16 11 6 6 3 3 3 3 5 6 10 15 18 15 5 2 3 3 2 2 5 4 4 5 5 5 0 3 2 1 3 2 3 3 3 0 2 2 6 1 2 1 3 5 6 3 5 9 10 10 8 4 11 10 9 6 6 7 8 9 11 11 14 9 4 5 2 1 1 0 0 1 3 3 2 0 2 5 5 4 7 8 6 7 7
20 16 8 4 5 4 3 4 4 6 18 25 19 7 4 4 3 2 2 2 2 3 2 3 2 2 1 3 2 3 3 3 2 3 1 3 1 3 2 3 5 2 5 4 6 5 2 2 5 8 10 8 6 10 10 10 8 7 7 8 8 9 9 8 12 10 5 6 7 6 5 4 4 3 4 4 4 4 6 3 2 3 2 1 2 2 4
13 6 5 2 4 3 4 3 8 22 13 4 5 3 1 0 3 2 1 1 1 1 2 4 4 3 4 2 4 3 4 3 2 0 1 2 3 3 2 2 1 2 4 2 7 6 2 4 1 2 5 4 3 7 10 8 8 7 9 9 10 10 10 10 9 6 6 8 11 11 10 9 8 8 7 5 4 3 3 2 3 3 0 2 2 3 3
5 4 5 4 3 2 3 11 23 15 5 3 2 3 1 1 3 2 0 3 1 2 2 3 2 4 6 8 6 4 1 3 2 2 2 3 0 1 1 2 4 2 3 3 4 3 4 4 4 3 7 1 3 8 11 10 10 10 10 12 13 12 11 11 10 8 8 10 10 10 9 11 12 7 5 7 7 8 6 6 6 4 4 5 4 6 8
2 4 4 4 3 2 2 3 4 4 3 2 2 1 2 1 1 0 3 2 1 3 1 1 2 1 0 1 2 6 4 2 1 2 3 2 2 4 1 2 1 3 2 2 2 2 1 2 3 6 4 3 5 10 11 10 10 13 11 12 12 12 14 13 12 12 12 11 11 12 12 12 11 12 8 3 8 7 7 7 7 7 6 7 9 6 4
3 5 5 7 5 5 5 5 3 2 2 0 3 2 1 1 1 2 1 4 5 2 1 2 1 3 4 7 7 4 3 1 2 1 2 1 2 3 3 0 1 2 4 2 2 1 2 3 2 3 4 5 8 9 10 12 12 14 15 13 13 14 15 14 14 13 11 11 10 10 10 11 10 9 11 12 6 2 4 5 5 4 5 3 5 7 8
22 16 8 6 4 3 1 2 1 1 3 1 2 2 0 3 1 4 2 1 2 2 2 2 0 1 2 2 1 1 3 1 2 1 2 3 1 2 1 1 1 1 4 2 2 1 2 3 5 1 4 6 8 10 10 10 13 12 12 11 12 12 12 13 13 13 12 11 11 11 11 11 9 9 9 9 10 5 5 4 2 3 4 5 6 6 8
8 5 5 1 3 2 2 3 1 3 2 1 3 5 3 3 1 2 2 3 1 1 2 4 3 4 5 1 3 1 1 1 1 1 0 1 2 1 1 2 4 4 3 1 0 2 4 1 2 3 7 8 7 10 12 13 13 13 13 14 13 12 13 13 12 13 14 11 10 11 10 9 10 10 11 12 14 9 6 4 5 3 3 4 6 5 4
4 3 2 2 2 1 3 0 1 2 2 2 2 2 4 7 7 6 6 1 2 4 1 2 2 1 3 3 2 1 1 2 0 3 3 3 1 2 2 4 2 2 2 5 2 1 3 3 1 3 9 12 13 13 13 12 11 11 14 15 12 14 14 15 14 12 11 11 13 13 10 10 9 10 10 10 9 8 10 9 8 4 4 5 5 6 3
4 4 3 4 4 1 1 1 1 2 1 2 0 1 4 3 4 4 1 3 1 3 4 3 2 1 2 2 4 3 0 1 2 2 1 1 2 3 3 0 3 1 1 1 3 7 6 1 3 6 8 10 13 14 13 11 11 11 12 12 13 15 14 13 12 11 11 12 12 11 10 8 8 9 10 9 9 9 10 10 8 6 2 5 6 5 3
3 2 2 1 3 0 2 3 1 0 0 2 2 1 3 3 3 5 3 2 1 2 3 3 2 1 1 1 1 2 1 1 1 2 3 1 2 1 2 1 3 2 3 4 5 6 1 1 4 7 9 9 12 13 12 12 12 12 12 11 12 13 13 13 12 12 12 12 12 11 9 8 7 7 6 8 10 10 11 12 10 8 7 7 6 5 6
4 0 2 2 3 2 3 0 3 5 4 3 1 2 2 1 2 3 4 3 3 2 1 1 3 1 1 2 1 1 1 1 0 3 2 2 1 1 0 0 2 2 1 3 2 3 4 6 7 9 9 8 9 10 11 12 13 14 13 14 13 12 13 13 12 12 12 12 11 10 9 9 8 7 8 7 8 9 10 10 10 8 8 8 10 11 12
5 4 4 4 1 2 4 4 5 5 3 3 4 5 5 5 4 2 4 2 3 2 2 0 1 1 1 0 3 1 2 1 1 3 1 1 1 2 1 2 1 3 1 3 2 2 3 7 8 8 9 10 9 8 10 11 10 11 13 11 11 12 11 9 11 11 10 8 8 8 9 8 7 7 7 7 8 8 9 10 10 9 9 10 10 10 11
6 6 9 5 5 4 3 1 5 5 1 3 3 4 4 2 3 2 3 4 3 3 2 4 4 0 0 1 0 1 1 2 2 0 3 1 1 1 2 1 3 3 1 1 2 4 4 5 6 9 9 8 10 12 10 7 9 10 9 10 9 8 9 10 10 9 8 7 8 8 8 6 6 7 7 7 5 4 7 10 10 11 10 12 11 9 10
4 8 4 1 2 1 3 5 4 6 4 3 3 3 3 2 3 3 5 5 6 3 1 3 2 2 2 2 1 1 1 0 2 1 1 2 0 2 2 4 1 2 2 3 3 6 5 6 7 8 9 11 13 11 8 10 9 10 12 10 10 9 9 8 8 7 8 7 7 6 7 7 6 5 5 4 4 5 8 10 11 9 10 10 11 10 10
5 6 3 3 5 5 4 2 5 7 4 2 2 3 3 1 3 4 6 4 3 1 4 0 2 3 2 4 3 1 1 2 1 1 1 1 1 2 1 0 0 2 3 4 5 5 6 7 8 9 9 10 10 10 11 10 10 10 9 9 9 8 8 8 8 7 7 7 8 7 7 7 6 6 7 8 8 9 10 9 8 9 9 8 10 11 11
Wind_Direction
249 253 253 249 246 241 240 244 242 239 144 114 234 178 191 201 228 180 178 182 156 160 206 190 202 219 230 231 237 79 38 180 184 182 204 209 191 235 194 202 183 248 181 185 167 174 206 177 202 209 222 241 211 210 161 117 161 132 0 34 346 125 154 190 249 267 308 300 302 69 76 72 287 262 120 121 201 186 182 180 182 166 153 201 249 187 261
246 247 247 249 248 242 237 235 237 232 169 168 160 155 218 210 183 305 264 192 173 181 196 197 209 219 242 213 222 168 204 156 152 190 190 185 170 209 202 341 208 234 151 140 191 184 223 213 206 244 224 262 200 157 164 156 180 163 212 169 183 134 248 205 227 317 343 335 345 288 27 51 225 222 195 203 183 168 154 103 103 153 215 193 146 237 253
240 241 242 245 245 243 238 231 234 234 209 171 142 168 211 88 180 214 279 209 254 208 188 211 196 216 223 210 220 206 226 197 187 183 192 185 196 160 233 212 149 205 165 203 186 196 203 224 216 215 208 236 63 239 162 182 188 219 241 8 167 183 161 172 205 220 231 231 212 221 211 197 210 225 218 200 183 174 113 224 190 218 229 199 197 247 257
239 236 237 238 238 239 235 231 232 230 226 186 147 215 66 158 228 183 232 294 244 243 307 357 231 212 221 225 224 218 230 213 216 175 215 177 202 208 103 0 156 197 146 213 209 226 231 224 181 192 236 248 290 212 186 181 199 213 151 144 152 199 226 191 194 206 225 234 243 41 111 88 178 226 188 200 202 190 199 171 178 216 228 208 218 228 251
237 237 233 231 235 234 232 229 226 227 220 179 164 215 157 238 202 182 196 196 249 249 224 215 210 236 185 228 158 223 224 222 236 184 221 185 196 223 212 180 170 198 196 213 233 221 230 241 251 206 217 286 220 339 172 222 221 198 167 171 117 84 215 222 216 215 225 234 242 205 154 173 208 205 205 198 186 185 189 199 222 220 224 245 229 230 240
235 236 231 227 229 230 228 226 222 217 224 178 153 205 162 221 233 214 212 151 186 210 246 210 238 246 258 253 224 225 217 215 224 167 213 172 195 201 318 207 209 189 199 201 225 206 232 210 230 239 237 258 314 1 132 181 228 204 213 176 181 171 225 219 218 231 231 235 247 191 193 200 199 203 197 192 194 183 196 216 227 217 207 231 242 226 234
235 233 231 227 225 226 225 225 222 216 213 188 182 185 234 224 355 249 283 155 254 207 57 149 215 238 235 291 293 248 220 219 214 182 177 211 209 195 218 212 215 218 205 199 220 208 218 230 223 220 222 218 196 222 299 258 192 154 209 194 179 162 234 220 214 225 231 238 242 222 193 227 227 207 202 194 184 196 204 217 223 220 226 239 254 255 240
231 231 230 227 224 224 224 223 221 217 207 198 207 206 188 188 197 253 71 46 320 99 19 148 189 227 188 219 218 221 289 274 242 196 168 201 214 187 219 225 214 214 217 213 221 212 216 215 221 210 228 242 183 239 209 112 10 151 200 183 248 153 223 223 224 240 240 241 244 241 210 218 228 233 221 204 200 203 208 216 223 226 240 241 245 251 258
229 229 228 227 225 222 220 220 217 215 200 186 206 215 185 5 118 154 120 179 239 185 215 226 236 244 186 218 222 213 226 239 241 259 215 216 193 187 212 220 228 216 215 219 230 227 229 224 229 220 194 227 206 199 283 186 162 193 197 166 201 169 239 223 199 230 241 244 243 244 227 194 227 233 198 214 215 217 216 217 212 206 218 225 235 250 253
226 226 226 225 225 221 218 217 215 214 201 207 196 222 161 213 265 59 105 227 204 200 197 158 140 236 212 197 220 235 190 189 174 290 202 213 232 228 215 214 220 226 219 222 223 228 231 234 234 234 231 237 264 180 186 158 166 179 205 112 144 181 181 218 218 237 233 241 239 247 146 170 247 233 228 220 219 218 218 227 223 217 213 216 222 234 241
223 224 225 225 223 221 218 216 215 210 192 202 200 188 158 178 190 140 85 203 238 193 217 220 211 244 253 184 237 231 247 261 245 245 284 64 277 224 262 260 236 234 227 229 230 233 236 240 252 72 150 213 229 184 203 201 165 163 167 173 175 168 201 223 193 238 241 242 244 216 182 223 225 226 230 224 224 203 210 225 225 229 207 220 225 240 251
223 223 222 223 221 220 219 217 215 212 201 204 198 218 188 143 129 135 162 218 231 180 206 228 210 225 229 218 191 223 216 223 235 218 250 270 273 213 184 254 281 273 312 355 30 88 65 48 35 114 226 233 237 232 204 213 223 200 176 179 178 199 202 223 184 228 231 245 242 231 230 232 231 249 258 231 226 210 214 227 230 228 224 240 256 255 250
220 223 222 221 221 221 219 218 214 213 204 183 187 216 215 153 142 153 165 207 233 190 194 232 235 247 260 272 315 268 267 268 262 241 241 249 269 242 197 222 214 249 333 5 253 260 239 237 237 233 240 243 244 244 241 233 231 210 200 201 195 206 209 194 219 207 255 210 212 240 234 234 330 273 229 240 221 223 224 243 243 235 224 216 231 242 247
217 218 220 221 221 220 221 218 215 214 208 189 191 203 184 161 158 166 163 175 234 215 197 263 231 235 233 218 213 260 271 268 260 223 250 220 250 249 240 206 230 110 113 78 290 247 252 201 246 221 224 217 241 242 230 231 228 224 214 211 206 211 211 201 240 180 228 210 225 238 309 310 275 277 240 179 190 181 194 227 240 235 226 214 223 235 241
218 216 216 218 219 218 217 219 218 214 212 200 189 185 187 185 192 170 160 192 239 217 170 218 208 225 232 231 174 227 233 246 293 265 218 242 256 235 213 221 195 119 130 116 272 235 230 214 230 212 207 202 214 235 171 236 208 223 221 216 207 205 216 191 225 215 207 225 238 241 232 237 244 236 241 130 201 195 194 205 254 251 224 218 220 231 238
218 217 215 217 218 218 216 218 219 217 213 200 178 199 197 187 166 153 175 189 183 240 207 216 218 148 200 226 196 201 216 197 191 251 277 249 248 277 273 249 223 138 102 157 205 247 200 223 236 227 226 208 216 233 225 161 222 243 206 212 208 209 214 211 214 212 196 219 231 227 230 234 229 249 237 187 174 148 134 169 241 249 240 212 215 227 239
216 216 215 214 214 217 217 217 217 218 216 202 192 188 206 170 178 185 191 229 193 232 69 190 201 194 170 244 212 228 186 234 190 239 260 243 229 230 253 13 320 186 179 197 207 229 221 235 280 283 303 253 220 209 161 204 182 185 2 200 206 206 212 214 226 221 220 225 228 234 214 240 232 239 178 197 136 119 119 204 239 243 248 168 189 203 226
213 214 215 217 213 213 215 217 217 217 216 207 193 181 184 174 177 171 197 191 212 241 216 162 115 156 201 202 201 225 96 63 86 83 221 277 342 312 268 136 209 280 175 214 158 220 234 251 251 257 253 204 243 323 232 166 204 182 172 176 173 201 212 209 223 224 227 224 243 259 262 259 240 193 202 150 160 131 173 221 235 227 130 172 159 193 209
213 210 212 218 215 213 213 215 215 215 216 211 187 174 199 175 176 179 176 171 207 238 179 179 161 185 204 116 150 183 185 167 149 138 209 323 266 197 169 248 204 207 178 200 183 227 232 243 227 226 249 247 135 219 221 211 235 25 115 129 215 206 202 215 218 227 230 232 235 238 267 236 160 331 157 172 105 212 218 230 188 156 157 174 187 190 207
210 210 213 213 215 213 212 216 214 213 215 212 184 201 157 170 179 181 183 200 204 244 195 144 179 208 191 199 208 210 287 17 152 152 201 216 262 20 338 324 292 143 297 167 219 196 226 235 225 206 229 233 229 161 256 244 204 168 202 195 192 176 190 190 203 211 229 227 242 231 236 249 134 125 77 289 198 238 173 203 291 180 223 190 216 203 217
210 210 208 211 212 212 212 213 213 211 212 212 200 170 193 176 180 193 198 199 219 243 258 176 180 202 189 208 213 207 189 213 169 198 208 224 197 113 206 226 287 13 242 200 225 205 198 227 212 223 244 233 219 220 227 236 238 236 164 204 225 180 208 190 207 183 213 209 221 220 218 143 167 148 185 203 228 194 169 142 256 214 179 198 208 226 226
208 209 208 210 215 213 210 212 213 211 210 211 195 153 208 180 170 183 190 178 211 226 252 193 185 203 214 207 207 200 206 213 219 168 183 241 206 208 226 280 274 150 237 359 348 309 273 220 216 153 223 238 255 234 160 222 236 194 338 146 247 166 216 179 213 184 203 216 224 204 178 170 207 190 186 200 219 215 203 204 217 211 239 191 178 243 250
207 204 204 209 213 212 210 210 211 212 210 210 205 174 198 155 170 162 146 203 261 297 284 244 289 274 281 261 228 212 232 267 295 192 181 227 258 181 219 234 260 180 226 145 223 271 309 320 260 271 256 202 194 254 243 233 259 172 229 204 240 243 215 127 66 268 296 276 164 213 228 250 251 254 233 215 225 226 205 198 216 225 202 177 194 214 227
202 202 204 204 209 214 209 209 212 211 208 207 201 158 187 166 163 139 147 178 207 244 252 215 184 236 225 236 229 187 248 253 220 223 214 205 241 253 187 218 208 299 183 218 169 172 277 290 263 313 268 301 45 237 234 235 230 231 228 240 248 254 219 186 212 202 205 245 186 222 235 227 212 220 228 231 251 255 221 219 225 223 192 210 229 220 218
205 203 200 203 207 211 209 207 209 210 210 210 203 182 145 160 170 160 151 181 194 205 241 217 218 234 241 230 141 191 214 218 212 206 194 202 212 235 242 195 198 223 255 204 136 78 187 260 297 281 276 233 155 269 152 261 286 64 270 268 8 324 356 286 252 229 211 233 215 243 240 249 249 232 242 244 242 235 244 242 271 283 258 220 215 149 204
210 207 203 199 201 211 209 211 211 212 210 207 197 167 185 187 164 160 159 166 101 150 217 249 261 312 76 195 215 216 192 194 204 203 198 204 212 219 243 241 298 63 102 100 126 231 254 248 235 257 270 279 178 250 259 199 258 191 211 265 215 225 15 268 249 244 270 306 297 273 280 325 257 244 245 255 262 242 238 234 241 249 226 227 206 202 196
209 208 205 198 200 206 209 210 213 211 209 206 202 178 176 165 162 173 177 163 134 290 232 250 236 22 264 205 227 204 198 192 200 203 207 212 214 222 227 244 242 236 227 255 186 215 214 234 243 250 237 259 351 266 298 297 109 277 263 254 113 127 233 231 289 270 248 233 239 232 260 262 250 231 228 232 225 211 241 237 236 223 213 203 193 217 223
211 206 203 200 196 195 203 213 214 211 208 209 202 168 166 173 184 182 175 165 179 198 153 256 288 253 146 284 237 197 188 180 190 197 207 212 213 215 223 230 234 238 229 222 237 199 195 225 235 230 260 326 282 261 181 241 237 254 236 248 199 225 238 206 240 247 266 284 287 302 271 275 272 276 252 231 203 190 215 224 227 227 220 203 189 180 181
211 214 207 203 197 192 196 205 213 213 209 196 103 101 45 239 207 191 182 185 178 203 91 207 317 22 196 242 32 291 228 173 178 191 202 208 206 211 219 223 228 227 231 229 229 235 235 239 233 231 180 211 216 269 245 245 225 242 229 228 230 209 210 220 227 233 245 256 263 260 233 243 263 271 243 236 203 194 215 225 224 220 210 200 201 200 188
198 206 202 200 202 196 197 202 207 210 194 117 96 75 141 259 198 200 186 178 168 150 199 229 240 243 269 53 248 226 143 184 185 185 197 197 205 210 215 218 224 217 218 217 203 233 212 243 231 227 243 129 232 249 259 265 257 249 227 229 231 226 220 227 227 225 243 244 242 249 237 251 262 279 249 253 228 202 212 224 224 217 210 195 202 214 224
199 197 200 201 199 198 199 200 203 193 142 135 110 113 168 228 201 181 169 162 163 166 205 199 235 48 0 259 159 200 184 154 169 179 195 197 210 212 219 208 225 201 227 218 219 240 228 232 176 227 193 190 199 242 246 256 260 258 242 235 232 233 227 234 235 235 246 268 275 260 293 265 274 308 278 255 240 212 237 252 241 220 214 196 211 204 197
195 198 200 198 193 195 201 198 199 165 148 154 177 185 181 192 191 169 173 160 152 159 163 169 221 320 229 286 254 231 156 170 127 138 176 162 218 209 217 196 215 195 214 229 226 234 230 228 236 216 198 198 196 265 221 244 254 252 267 267 259 234 228 245 257 257 251 247 283 300 287 277 243 228 258 250 228 216 218 236 252 240 207 200 189 185 191
191 192 194 197 195 196 201 200 190 156 173 156 44 52 204 193 148 158 154 139 132 189 141 108 172 207 251 247 15 304 168 104 128 149 234 163 223 152 203 190 216 220 209 235 210 239 198 213 208 234 221 157 216 196 242 243 248 262 261 260 264 248 243 245 255 270 255 229 169 227 253 256 286 281 257 274 261 227 223 224 193 143 146 159 176 165 132
192 191 193 195 194 195 198 196 183 151 147 147 192 236 274 178 159 152 141 128 105 68 88 139 160 119 230 329 58 275 127 155 176 158 217 177 182 159 207 175 188 210 189 207 231 241 286 357 220 238 211 224 201 244 241 244 248 255 259 262 268 266 258 270 266 265 257 236 205 219 241 263 267 285 289 258 248 258 205 139 139 159 186 185 196 192 176
193 191 188 188 190 190 188 168 134 125 146 125 58 277 197 164 162 159 152 147 126 198 126 271 118 112 105 352 271 271 211 97 173 180 194 245 146 182 187 155 212 196 215 166 226 216 229 220 161 226 226 161 209 227 236 242 241 243 253 267 271 271 297 298 272 248 245 244 222 222 225 201 1 335 311 322 315 306 195 199 196 172 180 202 192 172 171
187 185 188 189 183 174 128 90 123 126 165 176 192 176 156 153 152 120 38 91 127 154 136 185 116 181 147 169 207 262 73 346 217 87 206 149 353 240 208 206 250 224 156 136 226 179 211 149 123 234 212 232 233 223 244 235 247 256 277 311 340 327 291 284 301 284 222 255 286 257 53 55 127 187 122 13 345 324 299 236 223 216 202 186 178 158 148
179 180 176 161 132 55 74 142 133 179 177 135 134 117 101 92 71 66 354 354 351 92 141 146 117 200 165 204 163 272 102 188 173 147 181 150 206 142 135 233 228 215 55 226 208 199 226 132 220 244 235 236 250 24 36 40 43 21 3 333 327 341 345 341 336 314 234 230 225 316 325 284 309 212 160 176 164 86 313 270 242 218 211 203 176 169 168
171 150 119 120 98 108 115 181 191 164 129 126 122 88 352 24 102 107 49 39 294 47 347 68 160 227 30 94 196 248 85 271 56 159 119 197 133 267 212 191 233 196 257 225 230 168 92 109 196 214 237 228 97 60 23 12 25 14 353 343 338 337 332 333 339 336 277 245 256 257 257 254 242 242 196 205 195 189 204 214 280 299 324 206 183 143 127
121 113 83 61 98 155 177 207 161 132 104 56 43 92 52 347 90 42 210 134 73 91 256 115 211 156 124 145 262 309 171 163 57 0 148 267 113 280 108 240 235 127 266 216 269 142 214 217 211 191 265 206 114 13 3 342 359 4 356 346 342 335 340 336 345 6 333 309 314 317 307 281 250 232 206 186 185 226 246 244 215 259 162 132 126 124 104
103 105 126 124 130 180 118 140 135 124 112 85 342 90 114 310 116 195 80 93 46 326 116 220 173 164 185 185 185 274 255 102 213 259 183 304 138 195 258 82 260 138 254 212 248 96 163 210 210 148 237 138 61 9 356 349 340 347 348 344 340 341 343 335 327 328 315 291 286 292 313 326 326 296 199 193 183 184 216 234 232 202 173 167 160 163 170
104 89 97 127 180 107 68 88 22 44 85 109 83 19 102 38 333 132 105 61 125 222 297 163 67 84 240 101 122 208 292 80 180 140 124 178 248 77 57 230 260 74 275 267 307 43 212 163 182 196 198 48 341 345 338 342 343 339 340 339 342 339 341 336 336 337 339 332 332 332 335 334 335 338 326 247 188 191 194 203 209 206 179 157 169 175 131
148 117 136 101 107 106 72 25 47 79 49 43 123 135 138 132 49 22 126 140 217 189 266 159 203 173 227 179 195 153 272 184 139 122 119 295 262 155 222 196 12 170 252 225 79 49 8 281 257 225 64 356 360 344 350 337 341 335 334 341 339 341 340 339 335 337 343 337 327 320 325 333 334 338 342 327 302 198 167 169 180 187 182 150 120 130 145
99 95 81 84 65 43 123 71 317 115 126 120 116 90 40 113 173 149 214 339 331 108 248 22 302 13 328 68 331 196 183 191 125 222 88 214 311 52 125 351 91 269 227 26 70 264 227 208 239 224 25 338 345 343 341 334 325 323 322 332 334 332 335 331 333 328 331 338 334 331 327 331 343 344 342 339 338 16 38 46 96 130 133 137 139 136 138
90 71 71 30 78 308 95 147 169 73 22 81 140 154 161 107 284 45 44 248 213 199 298 135 201 123 213 275 148 148 23 349 137 73 347 294 86 213 137 224 212 236 58 28 200 250 233 281 342 342 332 333 328 344 336 337 330 329 325 334 332 339 336 332 340 345 343 344 341 337 330 340 346 354 7 8 4 355 351 32 17 30 75 100 112 115 119
95 32 74 79 82 214 87 356 44 123 167 215 125 155 150 170 182 185 169 295 21 136 72 46 15 121 183 265 47 318 163 205 94 107 221 134 88 234 164 245 231 42 150 221 215 305 343 247 85 327 344 337 333 332 334 328 332 330 324 318 328 339 342 342 342 340 338 342 339 336 334 342 350 2 7 4 350 354 350 342 334 8 62 87 99 95 63
98 153 125 118 121 108 123 136 58 137 9 11 124 238 136 147 125 151 24 301 337 356 47 41 318 153 235 275 152 213 57 106 126 226 189 95 129 240 224 9 61 142 309 70 204 223 223 125 1 322 336 324 324 324 323 320 323 325 332 328 328 331 332 334 331 338 336 337 335 338 330 339 353 1 1 356 354 346 348 333 331 336 15 98 85 89 80
69 22 86 86 97 137 61 132 185 340 5 72 62 18 42 92 68 88 63 16 26 306 298 254 227 299 111 300 12 355 30 72 165 244 73 52 219 265 23 115 225 191 195 226 228 232 170 352 320 329 322 324 319 320 317 319 325 328 323 320 320 323 327 331 332 336 337 338 334 337 335 342 349 360 358 3 1 359 350 343 358 9 41 45 40 66 68
111 162 85 89 120 84 83 2 137 116 23 70 1 347 302 223 82 35 8 338 297 281 304 326 116 99 327 281 82 162 217 220 101 285 169 219 39 52 7 250 256 253 48 253 251 28 298 307 322 317 322 317 310 305 318 322 325 325 324 322 320 321 327 325 330 334 340 341 339 337 335 343 357 4 20 6 360 2 0 357 350 7 39 51 46 35 48
82 61 83 115 83 63 74 125 125 70 37 23 42 35 22 49 71 352 323 332 350 325 295 80 70 107 145 150 121 165 238 238 121 245 47 42 141 227 154 230 290 291 293 162 264 257 299 318 307 312 310 314 313 304 311 322 318 316 319 313 312 314 312 312 324 330 335 338 340 339 339 350 359 13 13 16 27 11 1 -0 4 11 18 27 38 55 66
57 35 24 35 79 48 24 110 73 77 46 35 30 32 355 35 57 11 9 348 336 327 259 214 248 83 106 89 83 358 275 259 187 344 67 221 200 281 74 266 221 203 206 155 257 285 297 300 311 313 314 310 315 321 322 318 320 314 299 301 308 311 315 321 327 338 342 346 347 353 350 358 11 18 19 22 21 10 21 24 16 15 18 17 21 47 54
54 86 104 297 55 130 318 157 152 148 128 20 25 13 7 16 7 328 357 344 323 338 117 134 150 122 87 34 77 78 244 156 57 61 175 204 92 115 203 229 236 195 300 334 316 321 311 316 316 310 320 328 326 328 324 319 316 307 307 307 314 320 326 334 338 342 347 351 355 346 355 357 358 14 19 24 27 32 49 38 28 22 28 31 35 37 54
49 64 46 38 31 30 14 82 54 62 68 94 79 9 18 328 349 313 328 319 316 128 137 180 95 89 111 191 211 198 338 39 47 70 341 309 83 187 192 164 219 345 333 321 313 319 330 321 325 328 320 318 324 326 321 320 314 312 310 311 318 329 342 350 353 353 358 9 16 19 16 19 25 39 51 48 37 41 40 34 18 22 34 41 48 46 53